User: anonymous   Login
Location: Alpha Ridge Park
(39.3209°N, 76.9128°W)
Time: 21:49:18
(UTC-04:00)
Language:

Tiros 1 - Orbit

View from above orbital plane
View from above orbital plane
View from above satellite
View from above satellite

Ground track
Ground track

The orbit data is extracted from the following two-line orbital elements,

1    29U 60002B   19146.80615718 -.00000139  00000-0  10316-4 0  9995
2    29  48.3805 337.9698 0023934  13.1561 346.9970 14.74304964161462
Epoch (UTC): 26 May 2019 19:20:51
Eccentricity: 0.0023934
inclination: 48.3805°
perigee height: 630 km
apogee height: 664 km
right ascension of ascending node: 337.9698°
argument of perigee: 13.1561°
revolutions per day: 14.74304964
mean anomaly at epoch: 346.9970°
orbit number at epoch: 16146

The dashed part of the orbit path shows where the satellite is in the earth's shadow,  

DLR